[[{"header":{"parameterUnit":"m.s-1","parameterCategory":1,"la1":30.2991,"la2":30.254,"lo1":-89.0895,"lo2":-89.0444,"dy":0.0017,"dx":0.0017,"nx":28,"ny":28,"refTime":"2024-10-21T21:00:00:Z","depth":0,"parameterNumber":2,"parameterNumberName":"U-component_of_WINDS"},"data":[0,0,0,0,0,0,0,0,0,0,0,0,0,0,0,0,0,0,0,0,0,0,0,0,0,0,0,0,0,0,0,0,0,0,0,0,0,0,0,0,0,0,0,0,0,0,0,0,0,0,0,0,0,0,0,0,0,0,0.5441,0.5441,0,0.5494,0.5495,0.5496,0.5509,0.5508,0.5508,0.5508,0.5566,0.5567,0.5569,0,0,0,0,0,0,0,0,0,0,0,0,0,0.535,0.5352,0.544,0.5441,0.5442,0.5494,0.5495,0.5496,0.5509,0.5508,0.5508,0.5508,0.5565,0.5567,0.5569,0,0,0,0,0,0,0,0,0,0,0,0,0,0.5395,0.5352,0.544,0.5455,0.5456,0.5494,0.5495,0.5496,0.5509,0.5508,0.5508,0.5507,0.5564,0.5567,0.557,0.5598,0,0,0.5578,0.558,0,0,0,0,0,0,0,0,0.5393,0.5399,0.5452,0.5454,0.5456,0.5494,0.5484,0.553,0.5509,0.5489,0.5508,0.5507,0.5542,0.5547,0.5558,0.5601,0.5603,0.5579,0.558,0.5581,0.5582,0,0,0,0,0,0,0,0.539,0.5396,0.5462,0.5453,0.5455,0.5459,0.5465,0.5493,0.5518,0.5491,0.5492,0.5498,0.5543,0.5556,0.556,0.5604,0.5578,0.5581,0.5583,0.5584,0.567,0.5671,0,0,0,0,0,0,0.5384,0.5394,0.546,0.5463,0.5422,0.5461,0.5467,0.5483,0.5518,0.5523,0.5498,0.5498,0.5551,0.5557,0.5562,0.5596,0.5581,0.5584,0.5586,0.567,0.5671,0.5671,0,0,0,0,0,0,0.5382,0.5389,0.5458,0.5429,0.5438,0.5463,0.548,0.5484,0.5496,0.5524,0.5528,0.5506,0.5551,0.5558,0.5588,0.5598,0.5585,0.5588,0.5669,0.567,0.5671,0.5666,0,0,0,0,0,0,0.5379,0.5389,0.5399,0.5429,0.5439,0.5483,0.5481,0.5485,0.5501,0.5501,0.5532,0.5537,0.5551,0.5584,0.5591,0.5602,0.559,0.5668,0.5669,0.5671,0.5665,0.5666,0.5667,0,0,0,0,0,0.5376,0.5397,0.54,0.5408,0.5453,0.5484,0.549,0.5505,0.5501,0.5512,0.553,0.5536,0.5596,0.5587,0.5595,0.5607,0.5668,0.5669,0.567,0.5665,0.5666,0.5667,0,0,0,0,0,0,0.5369,0.5401,0.5405,0.5436,0.5457,0.5486,0.55,0.5506,0.5529,0.5529,0.5548,0.5554,0.5583,0.5598,0.5588,0.5635,0.5632,0.5635,0.5625,0.5626,0.5627,0.5623,0.5592,0,0,0,0,0,0.5371,0.5392,0.5419,0.5444,0.5454,0.5475,0.5489,0.5499,0.5522,0.5531,0.5551,0.5573,0.5597,0.5613,0.5636,0.5667,0.5674,0.5679,0.568,0.5681,0.5684,0.57,0.5703,0.5676,0.5676,0.5676,0,0,0.5376,0.5396,0.5408,0.5443,0.5461,0.5483,0.5483,0.5507,0.5523,0.5535,0.5564,0.5579,0.5606,0.5636,0.565,0.5649,0.5692,0.5683,0.5683,0.5686,0.5702,0.5704,0.5706,0.5677,0.5676,0.5676,0,0,0.5395,0.5412,0.5434,0.5451,0.5477,0.5491,0.5496,0.5524,0.5534,0.5563,0.5572,0.5592,0.5633,0.5651,0.5666,0.569,0.5696,0.5697,0.5703,0.5719,0.5721,0.5723,0.5731,0.5734,0.57,0.57,0.57,0,0.5398,0.5431,0.5445,0.5468,0.5483,0.5493,0.5515,0.5531,0.5564,0.5574,0.5572,0.5622,0.5641,0.5675,0.5681,0.5692,0.5699,0.5694,0.572,0.5722,0.5724,0.5732,0.5735,0.5699,0.57,0.57,0.57,0,0.5432,0.5455,0.547,0.5499,0.5516,0.5538,0.5556,0.5571,0.5579,0.5593,0.5622,0.5644,0.5672,0.5681,0.569,0.5716,0.5714,0.5716,0.5713,0.5726,0.5734,0.5737,0.5699,0.5699,0.5699,0.5699,0,0,0.545,0.5486,0.5491,0.5504,0.5533,0.5551,0.5573,0.5599,0.5611,0.5633,0.5652,0.5686,0.5687,0.5703,0.5714,0.5727,0.5744,0.5727,0.5728,0.5729,0.5773,0.5772,0.5775,0.5748,0.5749,0.5749,0.5771,0,0.5473,0.5513,0.5526,0.5559,0.558,0.5589,0.5609,0.5628,0.5641,0.5661,0.5676,0.5699,0.5699,0.5708,0.5722,0.5739,0.5753,0.5738,0.5766,0.5767,0.5759,0.5779,0.5778,0.5798,0.5774,0.5775,0.5775,0,0.5505,0.5526,0.5561,0.5585,0.5594,0.5611,0.5635,0.5654,0.5676,0.5685,0.5702,0.5711,0.5735,0.573,0.5762,0.5751,0.5764,0.5773,0.5775,0.5778,0.5772,0.5783,0.5805,0.5807,0.578,0.578,0.5779,0,0.5513,0.555,0.5576,0.5587,0.5616,0.5628,0.564,0.5662,0.5676,0.5697,0.5707,0.5731,0.5744,0.5762,0.5777,0.5772,0.5808,0.5805,0.5816,0.5815,0.5823,0.5823,0.5847,0.5831,0.5831,0.5831,0.5831,0,0.5537,0.5558,0.558,0.5595,0.5619,0.5633,0.5656,0.567,0.5688,0.5707,0.5716,0.5734,0.5752,0.5772,0.5784,0.5809,0.5815,0.5822,0.5825,0.5821,0.582,0.583,0.5829,0.5832,0.5832,0.5832,0.5832,0,0.5551,0.5566,0.5594,0.5619,0.5626,0.5642,0.5663,0.5679,0.5692,0.5715,0.5721,0.5741,0.5765,0.5781,0.5812,0.582,0.5846,0.5849,0.5838,0.584,0.585,0.5848,0.5881,0.5886,0.5867,0.5867,0.5867,0,0.5565,0.5581,0.5607,0.562,0.5632,0.5653,0.5667,0.5681,0.5696,0.5721,0.5733,0.5757,0.5777,0.5813,0.5831,0.5854,0.5858,0.5867,0.5861,0.5856,0.5857,0.5856,0.5857,0.5868,0.5868,0.5869,0.5869,0,0.5589,0.5595,0.5615,0.5636,0.5652,0.5671,0.5689,0.5699,0.5717,0.5732,0.5755,0.5771,0.58,0.5824,0.5848,0.5862,0.5868,0.587,0.5874,0.587,0.5863,0.5866,0.584,0.587,0.5869,0.5869,0.5869,0.5869,0.5603,0.5617,0.5637,0.5658,0.5673,0.569,0.5705,0.5719,0.5738,0.5763,0.5771,0.5795,0.5815,0.5848,0.5862,0.5881,0.588,0.5886,0.5887,0.5888,0.5888,0.586,0.5885,0.5885,0.5885,0.5885,0.5885,0,0.5626,0.5639,0.5658,0.5683,0.5699,0.5703,0.5723,0.5736,0.5757,0.5775,0.5794,0.582,0.5842,0.5861,0.5883,0.5895,0.5898,0.59,0.59,0.5902,0.5887,0.5882,0.5897,0.5897,0.5897,0.5897,0.5897,0.5897,0.564,0.5664,0.5672,0.5703,0.5716,0.5739,0.575,0.5765,0.578,0.5808,0.5826,0.5838,0.5856,0.588,0.59,0.5905,0.5913,0.5914,0.592,0.5905,0.5904,0.5902,0.5897,0.5916,0.5916,0.5933,0.5933,0.5933]},{"header":{"parameterUnit":"m.s-1","parameterCategory":1,"la1":30.2991,"la2":30.254,"lo1":-89.0895,"lo2":-89.0444,"dy":0.0017,"dx":0.0017,"nx":28,"ny":28,"refTime":"2024-10-21T21:00:00:Z","depth":0,"parameterNumber":3,"parameterNumberName":"V-component_of_WINDS"},"data":[0,0,0,0,0,0,0,0,0,0,0,0,0,0,0,0,0,0,0,0,0,0,0,0,0,0,0,0,0,0,0,0,0,0,0,0,0,0,0,0,0,0,0,0,0,0,0,0,0,0,0,0,0,0,0,0,0,0,1.2991,1.2992,0,1.3084,1.3085,1.3086,1.3085,1.3083,1.3082,1.3081,1.3173,1.3177,1.318,0,0,0,0,0,0,0,0,0,0,0,0,0,1.2808,1.2811,1.2991,1.2992,1.2993,1.3083,1.3085,1.3086,1.3085,1.3083,1.3082,1.3081,1.3172,1.3176,1.318,0,0,0,0,0,0,0,0,0,0,0,0,0,1.2893,1.2812,1.2991,1.3004,1.3006,1.3083,1.3085,1.3086,1.3085,1.3083,1.3082,1.308,1.317,1.3176,1.3181,1.3251,0,0,1.3197,1.32,0,0,0,0,0,0,0,0,1.2888,1.2899,1.3001,1.3003,1.3005,1.3071,1.3054,1.3141,1.3086,1.3055,1.3081,1.3079,1.314,1.3148,1.3169,1.3255,1.3259,1.3198,1.3201,1.3204,1.3205,0,0,0,0,0,0,0,1.2882,1.2895,1.3028,1.3002,1.3005,1.3003,1.3013,1.307,1.3107,1.3058,1.3058,1.3069,1.3141,1.3164,1.3172,1.326,1.3198,1.3203,1.3206,1.3208,1.3403,1.3404,0,0,0,0,0,0,1.2874,1.289,1.3025,1.303,1.2941,1.3008,1.3019,1.3052,1.3106,1.3113,1.307,1.3068,1.3156,1.3165,1.3175,1.3256,1.3203,1.3209,1.3212,1.3401,1.3403,1.3405,0,0,0,0,0,0,1.287,1.2886,1.3021,1.296,1.2977,1.3013,1.305,1.3054,1.3077,1.3116,1.3122,1.3087,1.3155,1.3167,1.3231,1.326,1.3211,1.3216,1.3398,1.3401,1.3404,1.3422,0,0,0,0,0,0,1.2865,1.2885,1.2913,1.2961,1.2981,1.3077,1.3051,1.3058,1.3087,1.3085,1.3133,1.314,1.3154,1.3223,1.3236,1.3266,1.322,1.3396,1.34,1.3403,1.3419,1.3426,1.3431,0,0,0,0,0,1.2858,1.2915,1.2915,1.2931,1.3017,1.3079,1.309,1.3107,1.3089,1.3117,1.3141,1.3138,1.3255,1.3229,1.3245,1.3276,1.3394,1.3399,1.3403,1.3417,1.3424,1.3431,0,0,0,0,0,0,1.287,1.2922,1.2922,1.2996,1.3033,1.3079,1.3114,1.3115,1.3157,1.3154,1.3172,1.3183,1.3245,1.3268,1.3239,1.3344,1.3322,1.3329,1.3327,1.3335,1.334,1.3333,1.3225,0,0,0,0,0,1.2881,1.2928,1.2971,1.3032,1.305,1.3079,1.3107,1.3116,1.3155,1.317,1.3199,1.3236,1.328,1.3309,1.3352,1.3423,1.3431,1.3452,1.3458,1.3462,1.3468,1.3502,1.351,1.3419,1.3419,1.3419,0,0,1.2904,1.2939,1.2967,1.3035,1.3065,1.311,1.3092,1.3143,1.3176,1.3178,1.3239,1.3261,1.3303,1.3369,1.3399,1.3389,1.3495,1.3468,1.3471,1.3474,1.3507,1.3516,1.3523,1.3422,1.3422,1.3421,0,0,1.297,1.3002,1.3055,1.3084,1.3129,1.3148,1.316,1.3205,1.322,1.3281,1.3282,1.3321,1.3399,1.3427,1.3451,1.3524,1.3521,1.3537,1.3567,1.36,1.3607,1.3613,1.3635,1.3643,1.3543,1.3543,1.3543,0,1.2993,1.3064,1.3082,1.3131,1.3159,1.3162,1.3213,1.3241,1.3298,1.3316,1.3304,1.3398,1.3427,1.3497,1.3514,1.3536,1.3547,1.3531,1.3605,1.3611,1.3617,1.3638,1.3647,1.3545,1.3544,1.3544,1.3544,0,1.3088,1.3137,1.3174,1.3227,1.3259,1.331,1.3333,1.3363,1.3369,1.3387,1.3447,1.3481,1.353,1.3547,1.3554,1.3618,1.3609,1.3601,1.3579,1.3627,1.3647,1.3656,1.3547,1.3546,1.3546,1.3545,0,0,1.3164,1.3225,1.3238,1.326,1.3309,1.3346,1.3394,1.3442,1.3465,1.3504,1.3543,1.3606,1.3597,1.3625,1.3635,1.3664,1.3714,1.3652,1.3653,1.3659,1.3781,1.3785,1.3795,1.3713,1.3715,1.3716,1.3776,0,1.3232,1.332,1.3335,1.3411,1.3454,1.3456,1.3497,1.353,1.3548,1.3585,1.3605,1.3648,1.3635,1.3651,1.3681,1.3702,1.3738,1.3698,1.3747,1.3748,1.3734,1.3806,1.3811,1.3867,1.3785,1.3786,1.3787,0,1.3324,1.3363,1.3443,1.3481,1.35,1.3538,1.358,1.3617,1.3652,1.3663,1.3692,1.3697,1.3745,1.3721,1.3785,1.3757,1.3777,1.379,1.3793,1.3796,1.3769,1.3808,1.3885,1.3892,1.38,1.3799,1.3798,0,1.3367,1.344,1.3496,1.3515,1.3563,1.3588,1.3609,1.3643,1.3669,1.3706,1.3722,1.3764,1.3786,1.3817,1.3832,1.3814,1.3893,1.3872,1.39,1.39,1.3916,1.3914,1.3994,1.3933,1.3933,1.3933,1.3933,0,1.3439,1.3487,1.3515,1.3549,1.3601,1.3617,1.3668,1.3688,1.3717,1.3753,1.3758,1.3792,1.3811,1.3846,1.3858,1.3907,1.3917,1.3925,1.3927,1.3923,1.3922,1.3936,1.3931,1.3935,1.3935,1.3934,1.3934,0,1.3496,1.3517,1.3577,1.3616,1.3627,1.3663,1.3696,1.3727,1.3744,1.379,1.3801,1.3827,1.3869,1.3887,1.3939,1.3946,1.4001,1.4002,1.3989,1.3989,1.4015,1.4011,1.4105,1.4116,1.405,1.4051,1.4052,0,1.354,1.3576,1.3618,1.3643,1.3664,1.3704,1.373,1.3746,1.3773,1.3814,1.384,1.3881,1.3915,1.3981,1.4003,1.4041,1.4041,1.4072,1.4047,1.4041,1.4038,1.4034,1.4036,1.4075,1.4076,1.4076,1.4077,0,1.3614,1.3621,1.3659,1.37,1.373,1.3763,1.3795,1.3814,1.3835,1.3864,1.3906,1.3933,1.3984,1.4024,1.4063,1.4082,1.4082,1.4084,1.4092,1.4088,1.4077,1.408,1.3998,1.4082,1.4081,1.4081,1.4081,1.4081,1.3663,1.3694,1.3727,1.3768,1.3793,1.3822,1.3852,1.3872,1.3908,1.3952,1.3959,1.4003,1.4034,1.4086,1.4106,1.4139,1.4132,1.4144,1.4147,1.4149,1.4149,1.4074,1.4147,1.4147,1.4147,1.4147,1.4147,0,1.3734,1.3755,1.3793,1.3836,1.3867,1.3865,1.3899,1.3925,1.3964,1.3993,1.4026,1.4072,1.411,1.4135,1.4172,1.4194,1.4194,1.4203,1.42,1.4204,1.4155,1.4143,1.4201,1.4201,1.4201,1.4201,1.4201,1.4201,1.3775,1.3825,1.3836,1.3898,1.3919,1.3962,1.3981,1.4007,1.403,1.4082,1.4113,1.4129,1.4155,1.4194,1.4228,1.4234,1.4246,1.4254,1.4259,1.4213,1.4208,1.4202,1.419,1.4257,1.4258,1.4304,1.4305,1.4305]}]]